owner,sensor,date,latitude,longitude,vertical_datum,sea_water_temperature,qcFlag 
TCOON,ioos:station:TCOON:147:1,2016-03-24T10:30:00Z,28.0841,-97.2009,0.0,19.8,2 
TCOON,ioos:station:TCOON:147:1,2016-03-24T11:30:00Z,28.0841,-97.2009,0.0,19.7,2 
TCOON,ioos:station:TCOON:147:1,2016-03-24T12:30:00Z,28.0841,-97.2009,0.0,19.5,2 
TCOON,ioos:station:TCOON:147:1,2016-03-24T13:30:00Z,28.0841,-97.2009,0.0,19.3,2 
TCOON,ioos:station:TCOON:147:1,2016-03-24T14:30:00Z,28.0841,-97.2009,0.0,19.1,2 
TCOON,ioos:station:TCOON:147:1,2016-03-24T15:30:00Z,28.0841,-97.2009,0.0,19.1,2 
TCOON,ioos:station:TCOON:147:1,2016-03-24T16:30:00Z,28.0841,-97.2009,0.0,19.1,2 
TCOON,ioos:station:TCOON:147:1,2016-03-24T17:30:00Z,28.0841,-97.2009,0.0,19.2,2 
TCOON,ioos:station:TCOON:147:1,2016-03-24T18:30:00Z,28.0841,-97.2009,0.0,19.4,2 
TCOON,ioos:station:TCOON:147:1,2016-03-24T19:30:00Z,28.0841,-97.2009,0.0,19.6,2 
TCOON,ioos:station:TCOON:147:1,2016-03-24T20:30:00Z,28.0841,-97.2009,0.0,19.7,2 
TCOON,ioos:station:TCOON:147:1,2016-03-24T21:30:00Z,28.0841,-97.2009,0.0,19.9,2 
TCOON,ioos:station:TCOON:147:1,2016-03-24T22:30:00Z,28.0841,-97.2009,0.0,19.9,2 
TCOON,ioos:station:TCOON:147:1,2016-03-24T23:30:00Z,28.0841,-97.2009,0.0,19.9,2 
TCOON,ioos:station:TCOON:147:1,2016-03-25T00:30:00Z,28.0841,-97.2009,0.0,19.8,2 
TCOON,ioos:station:TCOON:147:1,2016-03-25T01:30:00Z,28.0841,-97.2009,0.0,19.6,2 
TCOON,ioos:station:TCOON:147:1,2016-03-25T02:30:00Z,28.0841,-97.2009,0.0,20.3,2 
TCOON,ioos:station:TCOON:147:1,2016-03-25T03:30:00Z,28.0841,-97.2009,0.0,19.4,2 
TCOON,ioos:station:TCOON:147:1,2016-03-25T04:30:00Z,28.0841,-97.2009,0.0,19.2,2 
TCOON,ioos:station:TCOON:147:1,2016-03-25T05:30:00Z,28.0841,-97.2009,0.0,19.1,2 
TCOON,ioos:station:TCOON:147:1,2016-03-25T06:30:00Z,28.0841,-97.2009,0.0,18.9,2 
TCOON,ioos:station:TCOON:147:1,2016-03-25T08:00:00Z,28.0841,-97.2009,0.0,18.8,2 
TCOON,ioos:station:TCOON:147:1,2016-03-25T08:30:00Z,28.0841,-97.2009,0.0,18.7,2 
TCOON,ioos:station:TCOON:147:1,2016-03-25T09:30:00Z,28.0841,-97.2009,0.0,18.6,2 
TCOON,ioos:station:TCOON:147:1,2016-03-25T10:30:00Z,28.0841,-97.2009,0.0,18.4,2 
TCOON,ioos:station:TCOON:147:1,2016-03-25T11:30:00Z,28.0841,-97.2009,0.0,18.3,2 
TCOON,ioos:station:TCOON:147:1,2016-03-25T12:30:00Z,28.0841,-97.2009,0.0,18.3,2 
TCOON,ioos:station:TCOON:147:1,2016-03-25T13:30:00Z,28.0841,-97.2009,0.0,18.2,2 
TCOON,ioos:station:TCOON:147:1,2016-03-25T14:30:00Z,28.0841,-97.2009,0.0,18.1,2 
TCOON,ioos:station:TCOON:147:1,2016-03-25T15:30:00Z,28.0841,-97.2009,0.0,18.2,2 
TCOON,ioos:station:TCOON:147:1,2016-03-26T00:30:00Z,28.0841,-97.2009,0.0,19.7,2 
TCOON,ioos:station:TCOON:147:1,2016-03-26T01:30:00Z,28.0841,-97.2009,0.0,19.6,2 
TCOON,ioos:station:TCOON:147:1,2016-03-26T02:30:00Z,28.0841,-97.2009,0.0,19.3,2 
TCOON,ioos:station:TCOON:147:1,2016-03-26T03:30:00Z,28.0841,-97.2009,0.0,19.2,2 
TCOON,ioos:station:TCOON:147:1,2016-03-26T04:30:00Z,28.0841,-97.2009,0.0,19.1,2 
TCOON,ioos:station:TCOON:147:1,2016-03-26T05:30:00Z,28.0841,-97.2009,0.0,19.1,2 
TCOON,ioos:station:TCOON:147:1,2016-03-26T06:30:00Z,28.0841,-97.2009,0.0,19.2,2 
TCOON,ioos:station:TCOON:147:1,2016-03-26T08:00:00Z,28.0841,-97.2009,0.0,19.1,2 
TCOON,ioos:station:TCOON:147:1,2016-03-26T08:30:00Z,28.0841,-97.2009,0.0,19.0,2 
TCOON,ioos:station:TCOON:147:1,2016-03-26T09:30:00Z,28.0841,-97.2009,0.0,18.9,2 
TCOON,ioos:station:TCOON:147:1,2016-03-26T10:30:00Z,28.0841,-97.2009,0.0,19.0,2 
TCOON,ioos:station:TCOON:147:1,2016-03-26T12:30:00Z,28.0841,-97.2009,0.0,18.9,2 
TCOON,ioos:station:TCOON:147:1,2016-03-26T13:30:00Z,28.0841,-97.2009,0.0,19.0,2 
TCOON,ioos:station:TCOON:147:1,2016-03-26T18:30:00Z,28.0841,-97.2009,0.0,19.3,2 
TCOON,ioos:station:TCOON:147:1,2016-03-27T16:30:00Z,28.0841,-97.2009,0.0,20.5,2 
TCOON,ioos:station:TCOON:147:1,2016-03-27T17:30:00Z,28.0841,-97.2009,0.0,20.9,2 
TCOON,ioos:station:TCOON:147:1,2016-03-27T18:30:00Z,28.0841,-97.2009,0.0,21.3,2 
TCOON,ioos:station:TCOON:147:1,2016-03-27T19:30:00Z,28.0841,-97.2009,0.0,21.3,2 
TCOON,ioos:station:TCOON:147:1,2016-03-27T21:30:00Z,28.0841,-97.2009,0.0,21.7,2 
TCOON,ioos:station:TCOON:147:1,2016-03-27T22:30:00Z,28.0841,-97.2009,0.0,21.7,2 
TCOON,ioos:station:TCOON:147:1,2016-03-27T23:30:00Z,28.0841,-97.2009,0.0,21.6,2 
TCOON,ioos:station:TCOON:147:1,2016-03-28T00:30:00Z,28.0841,-97.2009,0.0,21.6,2 
TCOON,ioos:station:TCOON:147:1,2016-03-28T01:30:00Z,28.0841,-97.2009,0.0,21.6,2 
TCOON,ioos:station:TCOON:147:1,2016-03-28T02:30:00Z,28.0841,-97.2009,0.0,21.4,2 
TCOON,ioos:station:TCOON:147:1,2016-03-28T03:30:00Z,28.0841,-97.2009,0.0,21.3,2 
TCOON,ioos:station:TCOON:147:1,2016-03-28T04:30:00Z,28.0841,-97.2009,0.0,21.2,2 
TCOON,ioos:station:TCOON:147:1,2016-03-28T05:30:00Z,28.0841,-97.2009,0.0,21.1,2 
TCOON,ioos:station:TCOON:147:1,2016-03-28T06:30:00Z,28.0841,-97.2009,0.0,21.0,2 
TCOON,ioos:station:TCOON:147:1,2016-03-28T07:30:00Z,28.0841,-97.2009,0.0,20.9,2 
TCOON,ioos:station:TCOON:147:1,2016-03-28T08:30:00Z,28.0841,-97.2009,0.0,20.7,2 
TCOON,ioos:station:TCOON:147:1,2016-03-28T09:30:00Z,28.0841,-97.2009,0.0,20.6,2 
TCOON,ioos:station:TCOON:147:1,2016-03-28T10:30:00Z,28.0841,-97.2009,0.0,20.4,2 
TCOON,ioos:station:TCOON:147:1,2016-03-28T11:30:00Z,28.0841,-97.2009,0.0,20.3,2 
TCOON,ioos:station:TCOON:147:1,2016-03-28T12:30:00Z,28.0841,-97.2009,0.0,20.1,2 
TCOON,ioos:station:TCOON:147:1,2016-03-28T13:30:00Z,28.0841,-97.2009,0.0,20.0,2 
TCOON,ioos:station:TCOON:147:1,2016-03-28T14:30:00Z,28.0841,-97.2009,0.0,20.0,2 
TCOON,ioos:station:TCOON:147:1,2016-03-28T15:30:00Z,28.0841,-97.2009,0.0,19.9,2 
TCOON,ioos:station:TCOON:147:1,2016-03-28T16:30:00Z,28.0841,-97.2009,0.0,20.0,2 
TCOON,ioos:station:TCOON:147:1,2016-03-29T20:30:00Z,28.0841,-97.2009,0.0,21.3,2 
TCOON,ioos:station:TCOON:147:1,2016-03-31T19:30:00Z,28.0841,-97.2009,0.0,21.8,2 
 
DISCLAIMER: The Gulf of Mexico Coastal and Ocean Observing (GCOOS) Data Portal aggregates data from the regional data providers for the convenience of all data users. Data published on this website should not be used for navigation or certain other uses as we cannot guarantee data accuracy or availability. The data and delivery services are provided 'as is' without warranty of any kind. Data Source: Gulf of Mexico Coastal Ocean Observing System Data Portal (http://data.gcoos.org/) 
